TimeEDT,TemperatureF,Dew PointF,Humidity,Sea Level PressureIn,VisibilityMPH,Wind Direction,Wind SpeedMPH,Gust SpeedMPH,PrecipitationIn,Events,Conditions,WindDirDegrees,DateUTC
12:53 AM,75.9,69.1,79,30.19,10.0,NE,15.0,20.7,N/A,,Mostly Cloudy,40,2013-07-18 04:53:00
1:53 AM,73.0,70.0,90,30.18,10.0,NE,6.9,-,0.01,,Clear,50,2013-07-18 05:53:00
2:53 AM,73.0,70.0,90,30.18,10.0,North,3.5,-,N/A,,Clear,10,2013-07-18 06:53:00
3:53 AM,72.0,70.0,93,30.14,10.0,Calm,Calm,-,N/A,,Clear,0,2013-07-18 07:53:00
4:53 AM,72.0,70.0,93,30.12,10.0,East,5.8,-,N/A,,Clear,80,2013-07-18 08:53:00
5:53 AM,71.1,69.1,93,30.12,10.0,NE,4.6,-,N/A,,Clear,50,2013-07-18 09:53:00
6:53 AM,71.1,69.1,93,30.13,10.0,ENE,4.6,-,N/A,,Clear,70,2013-07-18 10:53:00
7:53 AM,73.9,70.0,87,30.15,10.0,NE,5.8,-,N/A,,Clear,40,2013-07-18 11:53:00
8:53 AM,77.0,71.1,82,30.18,10.0,Calm,Calm,-,N/A,,Clear,0,2013-07-18 12:53:00
9:53 AM,80.1,72.0,76,30.18,10.0,ESE,3.5,-,N/A,,Clear,110,2013-07-18 13:53:00
10:53 AM,82.9,73.0,72,30.18,10.0,SE,4.6,-,N/A,,Scattered Clouds,130,2013-07-18 14:53:00
11:25 AM,82.4,73.4,74,30.18,10.0,Variable,4.6,-,N/A,,Mostly Cloudy,0,2013-07-18 15:25:00
11:53 AM,84.0,73.0,69,30.17,10.0,SSE,5.8,-,N/A,,Mostly Cloudy,160,2013-07-18 15:53:00
12:00 PM,84.2,71.6,66,30.18,10.0,SSE,4.6,-,N/A,,Mostly Cloudy,150,2013-07-18 16:00:00
12:53 PM,86.0,72.0,63,30.18,10.0,Calm,Calm,-,N/A,,Mostly Cloudy,0,2013-07-18 16:53:00
1:53 PM,88.0,72.0,59,30.16,10.0,East,5.8,-,N/A,,Mostly Cloudy,80,2013-07-18 17:53:00
2:53 PM,89.1,71.1,55,30.13,10.0,South,5.8,-,N/A,,Mostly Cloudy,170,2013-07-18 18:53:00
3:53 PM,91.0,71.1,52,30.10,10.0,SE,6.9,-,N/A,,Mostly Cloudy,140,2013-07-18 19:53:00
3:59 PM,89.6,69.8,52,30.10,10.0,East,6.9,-,N/A,,Mostly Cloudy,100,2013-07-18 19:59:00
4:53 PM,90.0,69.1,50,30.08,10.0,ESE,4.6,-,N/A,,Mostly Cloudy,120,2013-07-18 20:53:00
5:53 PM,90.0,70.0,52,30.06,10.0,East,6.9,-,N/A,,Scattered Clouds,100,2013-07-18 21:53:00
6:53 PM,88.0,69.1,53,30.06,10.0,SSE,6.9,-,N/A,,Scattered Clouds,160,2013-07-18 22:53:00
7:53 PM,86.0,71.1,61,30.06,10.0,SSE,5.8,-,N/A,,Clear,150,2013-07-18 23:53:00
8:53 PM,84.0,72.0,67,30.08,10.0,Calm,Calm,-,N/A,,Clear,0,2013-07-19 00:53:00
9:53 PM,79.0,73.0,82,30.10,10.0,Calm,Calm,-,N/A,,Clear,0,2013-07-19 01:53:00
10:53 PM,78.1,73.0,84,30.11,10.0,Calm,Calm,-,N/A,,Clear,0,2013-07-19 02:53:00
11:53 PM,75.9,72.0,87,30.12,10.0,Calm,Calm,-,N/A,,Clear,0,2013-07-19 03:53:00